Wind_Speed
43 44 45 47 48 49 50 51 52 53 54 54 56 57 57 57 57 58 58 58 57 56 54 49 45 44 43 40 37 33 30 29 29 30 29 27 31 31 31 33 30 29 26 26
47 49 50 51 52 53 55 57 58 59 61 62 64 63 62 62 60 60 61 61 61 60 57 56 53 48 45 42 38 36 35 33 32 34 32 31 32 37 36 36 33 34 30 29
49 49 50 50 50 51 51 53 55 58 59 63 64 67 68 69 67 64 64 64 64 63 61 59 57 54 50 47 42 39 39 38 36 37 35 36 36 37 34 31 32 34 36 38
44 41 37 36 36 36 37 39 42 46 52 53 54 58 61 67 73 72 69 68 68 68 66 62 60 57 54 49 48 47 48 45 43 40 39 40 39 39 34 38 33 31 28 27
27 26 27 26 27 30 32 34 36 38 40 42 42 49 55 56 61 71 75 74 72 72 70 66 63 59 55 52 50 50 49 51 49 46 44 47 47 47 39 40 33 28 27 28
20 22 25 29 32 35 37 40 42 43 45 45 45 46 50 51 51 56 64 77 78 76 74 70 66 62 58 56 52 54 52 51 52 48 46 44 47 40 36 39 37 32 32 29
20 23 25 28 32 35 37 39 40 40 41 42 44 49 49 51 52 53 54 65 76 80 78 73 69 66 61 58 56 55 57 55 54 51 49 42 46 41 49 44 39 36 35 31
19 25 26 27 25 29 35 34 32 32 32 34 37 44 46 46 48 47 50 54 63 75 78 76 70 68 65 61 58 57 57 58 55 53 52 49 44 48 41 48 44 40 38 36
23 21 20 19 21 24 20 14 16 19 26 28 25 24 22 26 27 26 32 40 54 64 72 73 69 68 68 64 60 57 56 59 57 57 54 50 47 43 41 45 41 48 47 41
18 16 14 12 14 15 12 6 6 10 15 19 19 18 22 25 27 29 28 33 38 49 65 68 64 67 66 65 62 60 56 58 57 55 55 51 49 47 49 40 46 34 42 41
16 15 12 5 6 5 7 5 7 11 17 23 25 24 24 32 31 32 27 32 30 41 46 62 64 65 64 62 61 58 58 59 57 55 51 48 50 53 53 53 53 45 39 40
19 18 9 5 4 7 13 15 20 25 27 28 29 33 31 29 19 18 25 39 19 17 43 52 60 63 62 62 58 56 57 54 54 55 54 53 52 47 50 52 52 46 48 43
19 21 19 11 15 22 23 25 29 30 30 25 29 34 31 24 23 10 12 30 21 1 43 49 58 57 56 56 55 55 53 52 47 43 42 46 50 52 49 50 50 46 47 45
22 21 24 23 21 20 22 27 31 32 29 23 21 20 19 17 13 12 13 13 10 7 32 46 53 60 55 53 52 52 50 52 48 46 44 46 48 49 50 53 54 53 52 50
25 25 27 29 28 25 21 18 15 16 16 13 12 13 13 8 3 7 19 14 21 13 17 44 45 52 55 55 54 50 49 43 45 45 44 45 46 47 50 54 54 57 56 56
20 21 22 26 31 32 30 25 20 18 17 12 11 11 10 7 9 9 18 7 7 16 17 32 36 52 56 51 48 46 47 49 46 45 42 45 50 55 55 55 54 55 56 56
17 21 23 24 27 30 31 31 28 24 21 20 18 17 15 13 16 13 9 4 4 9 8 5 23 40 47 51 46 42 47 49 47 42 39 40 43 44 47 53 58 59 57 58
19 23 26 27 28 25 27 28 30 29 23 20 22 21 20 18 15 13 8 4 0 4 2 4 8 11 41 40 37 33 31 40 43 43 45 49 56 54 53 55 52 51 55 59
22 26 30 34 33 27 22 21 25 27 29 25 24 20 20 19 16 16 13 8 4 6 12 17 17 25 24 32 39 43 47 37 43 45 48 49 57 55 58 60 58 56 54 52
21 25 29 33 36 32 24 14 17 21 26 27 26 26 21 18 15 9 6 5 2 6 7 5 5 11 24 35 40 47 45 39 46 52 52 59 61 66 63 63 62 61 59 59
17 21 28 30 31 25 24 13 11 16 18 20 24 23 22 17 15 14 12 11 12 11 9 7 7 6 2 14 27 32 35 32 37 36 48 46 47 63 64 61 60 62 60 63
21 24 28 24 22 21 18 14 10 12 14 16 16 17 17 15 14 11 10 10 9 10 7 5 8 9 13 13 8 21 24 18 22 17 22 24 25 35 50 54 53 54 61 60
21 26 19 16 15 16 12 11 10 9 9 12 11 10 9 11 13 15 13 6 8 9 6 7 10 9 10 13 15 6 8 9 14 15 12 13 17 20 26 32 37 43 49 57
13 13 12 12 11 12 15 16 19 22 23 23 22 18 17 15 14 14 14 12 12 12 12 12 10 9 12 9 8 12 11 8 5 6 6 6 9 9 11 17 25 29 31 42
24 28 33 34 32 31 31 31 32 33 32 32 30 31 32 31 31 30 28 26 27 26 25 22 17 9 6 6 7 9 12 6 10 14 13 18 15 6 3 11 13 10 17 25
28 29 30 32 32 32 32 32 30 29 29 29 29 30 30 30 30 30 28 27 27 27 26 26 26 27 28 28 26 22 17 11 10 13 14 18 17 20 18 13 6 2 10 11
Wind_Direction
271 269 267 266 264 262 259 256 255 255 253 251 250 248 246 242 241 242 244 245 244 245 245 240 239 226 225 227 231 236 236 234 235 234 233 222 239 236 235 234 235 236 237 240
272 270 268 266 264 262 260 259 257 254 253 252 250 248 247 246 241 238 240 242 243 243 242 244 239 237 231 227 227 231 238 237 236 236 236 231 228 235 235 241 245 244 244 242
279 278 277 275 273 269 265 261 258 256 253 253 253 250 246 245 244 240 236 238 240 241 240 240 242 239 237 228 226 226 234 237 237 237 235 228 230 230 239 241 242 243 244 241
279 280 279 277 277 275 273 269 264 260 255 254 253 255 249 244 243 241 238 234 236 238 240 238 237 239 237 236 234 224 222 229 233 233 235 235 232 235 234 226 237 242 240 243
283 279 283 283 281 279 275 276 274 273 271 267 264 265 256 249 243 242 239 236 232 235 237 236 237 236 235 233 235 235 230 229 230 226 228 235 233 234 223 232 236 238 242 248
285 286 284 283 282 278 276 273 270 268 268 268 267 267 268 268 259 245 243 236 233 231 233 235 234 234 234 233 231 237 236 233 236 234 234 236 243 236 222 233 237 234 240 246
284 286 285 284 288 287 284 277 273 271 268 267 267 269 268 269 271 267 251 241 233 230 230 231 231 233 231 232 232 233 239 237 236 236 235 233 238 226 228 224 232 236 239 244
293 295 294 301 311 301 284 281 277 277 275 273 273 274 277 276 276 270 260 241 236 231 227 229 228 229 229 230 229 232 236 239 237 238 237 236 239 244 222 223 225 235 239 240
301 304 310 325 335 341 312 287 283 286 283 281 279 278 280 282 281 272 265 243 229 228 226 227 224 227 228 228 228 230 234 239 238 237 238 237 237 241 246 254 232 231 234 236
319 328 336 347 21 41 22 0 309 284 282 279 287 283 288 287 282 279 286 232 226 217 223 222 216 222 226 228 229 229 231 237 236 236 237 238 236 234 238 249 245 244 243 244
358 353 354 351 20 23 354 345 325 315 309 291 292 295 297 303 286 273 265 210 203 208 218 220 215 216 221 225 228 227 229 232 235 237 238 238 238 236 237 239 248 252 254 258
9 6 355 321 337 322 309 304 308 306 309 298 291 293 294 298 297 269 238 208 170 198 211 215 215 215 218 223 226 227 228 229 234 236 237 239 241 240 239 242 248 246 249 253
16 19 18 345 299 302 294 295 301 299 304 293 282 281 293 290 283 288 248 209 200 206 210 205 209 210 216 219 224 225 227 230 231 233 236 241 244 244 244 243 244 245 244 246
27 35 26 21 5 342 314 296 288 290 290 292 291 300 311 304 287 201 159 174 248 335 202 200 206 209 211 217 223 230 229 232 240 246 247 249 248 248 247 246 245 244 244 244
42 42 38 30 25 19 4 355 342 341 338 322 317 327 333 334 225 122 197 181 16 28 166 194 210 217 218 219 226 238 246 241 244 250 247 247 244 245 247 247 247 247 245 245
45 40 36 31 27 28 25 19 21 17 20 13 13 14 16 65 128 130 204 284 38 49 183 198 205 215 221 228 236 246 249 250 252 253 253 246 246 243 242 247 246 244 245 246
32 30 28 27 27 24 26 32 30 30 29 26 27 45 60 74 95 129 170 191 13 57 65 134 220 220 223 234 241 245 256 256 255 251 248 244 243 250 251 241 245 245 246 246
22 19 17 20 21 24 26 28 33 38 37 40 42 53 64 77 94 104 107 68 83 289 272 229 251 245 227 232 241 252 270 262 253 250 254 254 250 254 257 244 245 242 243 247
11 10 7 4 8 13 21 29 30 35 38 41 44 45 55 80 94 107 110 125 140 222 266 258 243 250 250 247 249 250 256 260 255 251 254 252 252 254 256 253 254 250 248 252
358 355 355 351 351 355 10 27 39 38 39 36 37 36 38 49 53 58 85 116 109 178 215 234 251 258 261 263 258 252 258 261 264 259 267 266 256 250 248 251 249 250 254 253
343 340 341 338 339 347 353 17 46 44 42 37 42 29 31 48 56 63 72 75 77 103 124 136 93 67 350 272 259 259 260 264 262 265 278 284 256 246 245 245 246 248 252 254
334 330 327 333 331 337 347 5 36 42 43 33 41 34 35 25 41 66 60 58 75 70 59 12 4 3 357 354 283 249 254 272 256 302 292 283 265 244 241 242 246 249 248 250
326 320 327 332 331 334 357 32 55 58 45 48 50 55 50 52 36 38 25 28 30 27 358 337 334 315 334 343 8 6 272 252 265 293 307 283 270 252 244 249 249 250 249 251
17 18 16 14 27 50 62 75 75 74 72 72 71 75 73 76 79 76 60 55 41 31 13 349 340 336 338 310 345 20 35 27 20 351 347 295 249 237 238 250 259 257 253 249
71 73 71 71 74 77 78 80 80 78 76 75 75 75 78 80 81 81 79 77 73 70 65 59 53 37 4 343 299 319 5 18 22 28 57 51 52 197 188 266 298 248 253 254
75 76 73 74 74 74 75 75 75 75 76 74 71 70 72 73 74 74 74 74 75 73 70 66 64 63 64 64 62 58 54 41 33 38 26 25 28 24 32 27 47 137 199 239
Height
5732 5732 5731 5730 5729 5729 5730 5730 5731 5733 5733 5734 5730 5732 5737 5743 5748 5751 5754 5758 5764 5768 5774 5781 5785 5787 5788 5794 5801 5805 5807 5809 5810 5816 5821 5826 5829 5832 5834 5835 5838 5841 5844 5847
5720 5718 5717 5716 5715 5715 5714 5714 5715 5717 5717 5717 5712 5718 5722 5726 5733 5738 5741 5745 5749 5755 5762 5767 5774 5779 5784 5787 5792 5798 5802 5805 5806 5809 5815 5819 5822 5824 5824 5828 5834 5837 5839 5841
5704 5703 5701 5700 5699 5698 5697 5697 5698 5699 5700 5699 5695 5699 5705 5709 5714 5722 5728 5731 5735 5740 5746 5754 5760 5768 5773 5778 5784 5789 5794 5798 5800 5803 5806 5811 5813 5815 5819 5825 5827 5828 5831 5835
5692 5690 5688 5686 5685 5684 5682 5682 5681 5682 5683 5683 5680 5679 5685 5692 5694 5702 5709 5717 5721 5725 5730 5739 5746 5755 5764 5772 5778 5777 5778 5784 5789 5794 5799 5802 5805 5810 5814 5814 5817 5822 5824 5826
5684 5681 5679 5678 5677 5675 5673 5671 5670 5669 5668 5668 5669 5662 5666 5673 5678 5681 5687 5696 5704 5709 5715 5723 5731 5741 5751 5760 5768 5772 5773 5774 5775 5783 5788 5792 5796 5799 5803 5808 5810 5814 5817 5819
5678 5677 5675 5672 5669 5666 5664 5661 5659 5658 5656 5655 5654 5652 5651 5653 5659 5663 5665 5673 5683 5692 5700 5708 5717 5727 5737 5746 5756 5762 5765 5766 5769 5776 5781 5784 5786 5791 5796 5801 5804 5807 5810 5812
5674 5672 5669 5666 5662 5657 5653 5651 5648 5646 5645 5645 5642 5637 5640 5641 5641 5643 5648 5651 5660 5671 5683 5693 5703 5712 5723 5732 5742 5749 5754 5759 5761 5767 5773 5763 5773 5778 5785 5790 5793 5797 5802 5805
5669 5666 5662 5658 5654 5648 5640 5638 5637 5635 5635 5635 5631 5626 5628 5628 5626 5626 5627 5634 5641 5651 5664 5676 5689 5698 5709 5718 5728 5736 5743 5748 5753 5758 5763 5769 5770 5775 5778 5781 5785 5789 5792 5796
5662 5660 5655 5652 5646 5638 5630 5629 5631 5630 5628 5626 5624 5620 5618 5617 5616 5614 5613 5617 5624 5635 5647 5660 5675 5684 5695 5705 5716 5725 5731 5737 5744 5748 5754 5761 5765 5769 5776 5775 5772 5775 5782 5787
5659 5655 5651 5647 5642 5636 5633 5630 5629 5627 5624 5621 5618 5615 5613 5610 5608 5606 5604 5606 5613 5622 5632 5646 5660 5671 5681 5692 5702 5713 5721 5729 5734 5739 5746 5752 5757 5762 5765 5745 5754 5763 5769 5775
5656 5652 5650 5645 5641 5636 5634 5631 5627 5624 5621 5616 5611 5609 5606 5602 5597 5595 5594 5599 5606 5614 5623 5633 5648 5659 5670 5682 5692 5702 5712 5719 5724 5729 5736 5742 5747 5752 5755 5757 5757 5760 5765 5765
5655 5650 5646 5644 5639 5635 5631 5627 5623 5618 5616 5610 5605 5602 5598 5594 5589 5586 5587 5592 5602 5607 5614 5624 5638 5650 5661 5673 5684 5693 5701 5708 5714 5720 5726 5730 5735 5740 5744 5747 5749 5753 5756 5759
5654 5649 5645 5643 5640 5633 5628 5623 5618 5613 5608 5604 5600 5596 5592 5587 5585 5584 5587 5592 5598 5604 5608 5615 5629 5640 5653 5665 5676 5685 5693 5699 5705 5711 5717 5722 5725 5730 5734 5737 5740 5744 5748 5751
5654 5650 5646 5642 5636 5629 5621 5616 5611 5606 5602 5598 5595 5591 5587 5582 5578 5582 5587 5595 5601 5604 5605 5611 5625 5637 5649 5659 5669 5676 5684 5690 5697 5704 5708 5711 5714 5718 5722 5727 5732 5735 5739 5742
5656 5653 5649 5643 5637 5629 5622 5615 5609 5603 5598 5595 5593 5590 5587 5582 5579 5583 5589 5596 5598 5599 5605 5613 5626 5637 5647 5654 5663 5670 5677 5683 5688 5693 5697 5701 5704 5707 5711 5714 5717 5721 5726 5730
5659 5655 5651 5646 5639 5632 5624 5616 5610 5604 5600 5597 5595 5592 5588 5585 5584 5588 5595 5602 5605 5608 5611 5618 5625 5633 5640 5649 5656 5662 5669 5672 5676 5680 5685 5689 5693 5697 5700 5702 5705 5708 5712 5716
5662 5657 5653 5648 5642 5635 5630 5622 5614 5608 5603 5599 5597 5596 5592 5591 5591 5596 5602 5604 5606 5607 5613 5619 5626 5632 5638 5644 5650 5654 5659 5662 5665 5669 5673 5676 5680 5683 5686 5690 5693 5696 5700 5702
5664 5659 5654 5650 5645 5640 5634 5627 5621 5615 5610 5605 5602 5600 5598 5598 5598 5600 5603 5605 5608 5613 5617 5623 5627 5629 5634 5640 5644 5647 5649 5649 5653 5658 5663 5666 5668 5669 5671 5675 5679 5683 5687 5690
5665 5661 5656 5650 5646 5643 5637 5633 5628 5622 5617 5613 5608 5606 5605 5607 5606 5607 5609 5611 5613 5615 5618 5621 5624 5627 5630 5633 5634 5636 5639 5642 5645 5647 5650 5652 5656 5657 5659 5661 5666 5670 5673 5677
5666 5661 5657 5651 5646 5643 5640 5636 5633 5629 5625 5620 5616 5612 5610 5608 5607 5610 5612 5614 5614 5615 5619 5620 5620 5621 5621 5621 5623 5625 5627 5629 5632 5634 5635 5632 5633 5637 5641 5647 5650 5654 5659 5662
5667 5664 5659 5653 5647 5644 5639 5637 5636 5634 5634 5627 5625 5621 5619 5617 5616 5614 5614 5614 5614 5615 5617 5619 5619 5618 5617 5616 5616 5618 5620 5624 5623 5624 5618 5611 5610 5614 5621 5628 5633 5638 5643 5648
5667 5663 5658 5653 5648 5645 5641 5638 5636 5635 5632 5630 5628 5627 5625 5624 5622 5621 5621 5620 5620 5620 5621 5621 5620 5619 5617 5615 5612 5612 5614 5615 5615 5615 5606 5598 5595 5597 5604 5611 5618 5623 5629 5635
5668 5662 5656 5652 5648 5644 5641 5638 5636 5635 5633 5631 5629 5628 5628 5627 5626 5625 5625 5625 5624 5624 5624 5623 5623 5621 5620 5617 5613 5610 5611 5612 5611 5609 5603 5596 5593 5594 5597 5603 5608 5612 5616 5621
5667 5661 5656 5652 5648 5645 5643 5641 5640 5638 5636 5635 5634 5632 5628 5628 5628 5628 5627 5627 5626 5625 5624 5622 5621 5620 5618 5617 5617 5615 5613 5611 5610 5606 5600 5597 5594 5594 5595 5598 5602 5604 5606 5609
5671 5668 5663 5659 5655 5652 5650 5649 5647 5645 5644 5643 5642 5639 5636 5635 5633 5633 5632 5630 5629 5628 5626 5626 5623 5621 5620 5618 5617 5616 5614 5613 5611 5606 5602 5598 5593 5593 5595 5598 5598 5598 5600 5602
5679 5676 5673 5669 5666 5663 5661 5658 5656 5654 5653 5652 5650 5647 5645 5643 5641 5640 5640 5639 5637 5635 5634 5632 5630 5627 5624 5620 5618 5616 5614 5612 5609 5605 5602 5599 5597 5597 5597 5597 5596 5596 5598 5599